Worcester, MA

9:50 AM EST on December 15, 2017 (GMT -0500)
Worcester Regional

Weather History for KORH - November, 2012

Change the Weather History Date:

Monday, November 5, 2012

  Actual Average Record
Temperature  
Mean Temperature 35 °F 44 °F  
Max Temperature 40 °F 52 °F 73 °F (1994)
Min Temperature 29 °F 36 °F 19 °F (1933)
Degree Days  
Heating Degree Days 30 21  
Month to date heating degree days 115 103  
Since 1 July heating degree days 614 764  
Cooling Degree Days 0 0  
Month to date cooling degree days 0 0  
Year to date cooling degree days 674 471  
Moisture  
Dew Point 19 °F    
Average Humidity 54    
Maximum Humidity 64    
Minimum Humidity 44    
Precipitation  
Precipitation 0.00 in 0.13 in 2.38 in (1985)
Month to date precipitation T 0.71  
Year to date precipitation 37.58 40.68  
Sea Level Pressure  
Sea Level Pressure 30.02 in    
Wind  
Wind Speed 9 mph (NNW)    
Max Wind Speed 17 mph    
Max Gust Speed 23 mph    
Visibility 10 miles    
Events      
T = Trace of Precipitation, MM = Missing Value Source: NWS Daily Summary

Daily Weather History Graph

Daily Weather History Graph

Search for Another Location

Airport or City:

Trip Planner

Search our weather history database for the weather conditions in past years. The results will help you decide how hot, cold, wet, or windy it might be!

Date:

Astronomy

Nov. 05, 2012 Rise Set
Actual Time 6:26 AM EST 4:35 PM EST
Civil Twilight 5:56 AM EST 5:04 PM EST
Nautical Twilight 5:23 AM EST 5:38 PM EST
Astronomical Twilight 4:50 AM EST 6:11 PM EST
Moon 10:10 PM EST (11/5) 11:44 AM EST (11/5)
Length of Visible Light 11h 08m
Length of Day
10h 09m
Waning Gibbous, 63% of the Moon is Illuminated
Nov 5
Waning Gibbous
Nov 6
Last Quarter
Nov 13
New
Nov 20
First Quarter
Nov 28
Full

Hourly Weather History & Observations

Time (EST) Temp. Windchill Dew Point Humidity Pressure Visibility Wind Dir Wind Speed Gust Speed Precip Events Conditions
12:54 AM 37.0 °F 30.4 °F 26.1 °F 65% 29.95 in 10.0 mi North 9.2 mph - N/A   Overcast
1:54 AM 36.0 °F 29.0 °F 25.0 °F 64% 29.95 in 10.0 mi NNW 9.2 mph - N/A   Overcast
2:54 AM 34.0 °F 26.6 °F 21.9 °F 61% 29.96 in 10.0 mi North 9.2 mph - N/A   Overcast
3:54 AM 33.1 °F 24.4 °F 19.9 °F 59% 29.96 in 10.0 mi NNW 11.5 mph 20.7 mph N/A   Overcast
4:26 AM 32.0 °F 24.2 °F 19.4 °F 60% 29.93 in 10.0 mi North 9.2 mph - N/A   Mostly Cloudy
4:54 AM 32.0 °F 25.6 °F 19.9 °F 61% 29.96 in 10.0 mi NNW 6.9 mph - N/A   Overcast
5:54 AM 33.1 °F 27.7 °F 19.9 °F 59% 29.98 in 10.0 mi NNW 5.8 mph - N/A   Overcast
6:04 AM 33.8 °F 25.8 °F 19.4 °F 56% 29.95 in 10.0 mi NNW 10.4 mph - N/A   Overcast
6:54 AM 33.1 °F 25.5 °F 19.9 °F 59% 30.00 in 10.0 mi NNW 9.2 mph - N/A   Overcast
7:54 AM 34.0 °F 27.2 °F 19.9 °F 56% 30.01 in 10.0 mi NNW 8.1 mph - N/A   Overcast
8:54 AM 34.0 °F 26.0 °F 19.9 °F 56% 30.01 in 10.0 mi North 10.4 mph - N/A   Overcast
9:54 AM 35.1 °F 27.4 °F 19.9 °F 54% 30.01 in 10.0 mi NNW 10.4 mph - N/A   Overcast
10:54 AM 36.0 °F 27.5 °F 19.9 °F 52% 30.01 in 10.0 mi NW 12.7 mph 20.7 mph N/A   Overcast
11:54 AM 37.0 °F 31.6 °F 19.9 °F 50% 29.99 in 10.0 mi NW 6.9 mph 21.9 mph N/A   Mostly Cloudy
12:54 PM 37.0 °F 28.5 °F 21.0 °F 52% 29.99 in 10.0 mi NW 13.8 mph 17.3 mph N/A   Partly Cloudy
1:54 PM 39.0 °F 33.4 °F 19.0 °F 45% 29.98 in 10.0 mi NNW 8.1 mph 20.7 mph N/A   Scattered Clouds
2:54 PM 39.0 °F 30.3 °F 19.0 °F 45% 29.99 in 10.0 mi NNW 16.1 mph 19.6 mph N/A   Mostly Cloudy
3:54 PM 35.1 °F 25.9 °F 18.0 °F 50% 30.02 in 10.0 mi NW 13.8 mph 20.7 mph N/A   Partly Cloudy
4:54 PM 33.1 °F 24.9 °F 16.0 °F 50% 30.04 in 10.0 mi NW 10.4 mph - N/A   Clear
5:54 PM 32.0 °F 23.0 °F 16.0 °F 52% 30.06 in 10.0 mi NNW 11.5 mph - N/A   Clear
6:54 PM 32.0 °F 24.2 °F 15.1 °F 50% 30.09 in 10.0 mi North 9.2 mph - N/A   Clear
7:54 PM 32.0 °F 26.4 °F 16.0 °F 52% 30.11 in 10.0 mi NNW 5.8 mph - N/A   Scattered Clouds
8:54 PM 30.9 °F 24.3 °F 17.1 °F 57% 30.12 in 10.0 mi North 6.9 mph - N/A   Clear
9:54 PM 30.0 °F 25.2 °F 17.1 °F 59% 30.13 in 10.0 mi NNW 4.6 mph - N/A   Clear
10:54 PM 30.0 °F 24.1 °F 16.0 °F 56% 30.13 in 10.0 mi NNW 5.8 mph - N/A   Clear
11:54 PM 28.9 °F 23.9 °F 15.1 °F 56% 30.14 in 10.0 mi NNW 4.6 mph - N/A   Clear